DW5656 Weather Reports


Display with metric or nautical units.
time (UTC)temp
F
wind
direction
speed
MPH
gust
MPH
rain 1hr
in
rain 24hr
in
rain mn
in
humidity
%
barometer
mb
20180226030815 47 42 5.0 10.0 0.00 0.00 0.00 79 1008.3
20180226025915 47 57 5.0 11.0 0.00 0.00 0.00 79 1008.2
20180226025015 48 54 4.0 10.0 0.00 0.00 0.00 78 1008.2
20180226024115 48 40 5.0 9.0 0.00 0.00 0.00 78 1008.2
20180226023215 48 46 4.0 10.0 0.00 0.00 0.00 78 1008.3
20180226022315 49 56 4.0 9.0 0.00 0.00 0.00 77 1008.4
20180226021415 49 56 3.0 7.0 0.00 0.00 0.00 76 1008.6
20180226020515 50 55 3.0 5.0 0.00 0.00 0.00 76 1008.7
20180226015615 50 31 3.0 6.0 0.00 0.00 0.00 76 1008.9
20180226014715 50 12 3.0 4.0 0.00 0.00 0.00 76 1009.0
20180226013815 50 5 4.0 6.0 0.00 0.00 0.00 76 1009.1
20180226012915 51 15 3.0 5.0 0.00 0.00 0.00 77 1009.0
20180226012015 51 8 2.0 6.0 0.00 0.00 0.00 77 1009.1
20180226011115 52 359 3.0 5.0 0.00 0.00 0.00 77 1009.1
20180226010215 52 17 2.0 5.0 0.00 0.00 0.00 76 1009.1
20180226005315 52 39 2.0 4.0 0.00 0.00 0.00 77 1009.2
20180226004415 52 55 1.0 4.0 0.00 0.00 0.00 77 1009.3
20180226003515 52 58 1.0 3.0 0.00 0.00 0.00 77 1009.4
20180226002615 52 41 0.0 2.0 0.00 0.00 0.00 77 1009.4
20180226001715 52 41 2.0 3.0 0.00 0.00 0.00 76 1009.5
20180226000815 53 43 2.0 4.0 0.00 0.00 0.00 76 1009.6
20180225235915 53 4 1.0 3.0 0.00 0.00 0.00 76 1009.6
20180225235015 53 310 2.0 3.0 0.00 0.00 0.00 76 1009.7
20180225234115 53 275 2.0 3.0 0.00 0.00 0.00 76 1009.8
20180225233215 53 241 1.0 3.0 0.00 0.00 0.00 75 1009.8
20180225232315 53 237 1.0 2.0 0.00 0.00 0.00 74 1010.0
20180225231415 53 237 1.0 3.0 0.00 0.00 0.00 74 1010.0
20180225230515 54 237 1.0 2.0 0.00 0.00 0.00 76 1010.0
20180225225615 54 237 2.0 3.0 0.00 0.00 0.00 76 1010.0
20180225224715 54 236 2.0 3.0 0.00 0.00 0.00 76 1010.0
20180225223816 55 229 1.0 3.0 0.00 0.00 0.00 74 1010.0
20180225222915 56 106 1.0 3.0 0.00 0.00 0.00 72 1010.0
20180225222015 56 106 1.0 2.0 0.00 0.00 0.00 72 1010.1
20180225221115 56 134 2.0 3.0 0.00 0.00 0.00 72 1010.1
20180225220215 56 154 0.0 3.0 0.00 0.00 0.00 72 1010.1
20180225215315 57 0 0.0 0.0 0.00 0.00 0.00 72 1010.1
20180225214415 57 0 0.0 0.0 0.00 0.00 0.00 72 1010.2
20180225213515 57 154 0.0 1.0 0.00 0.00 0.00 71 1010.2
20180225212615 57 154 0.0 1.0 0.00 0.00 0.00 71 1010.3
20180225211715 57 0 0.0 0.0 0.00 0.00 0.00 70 1010.3
20180225210815 58 154 0.0 1.0 0.00 0.00 0.00 70 1010.3
20180225205915 58 154 0.0 1.0 0.00 0.00 0.00 70 1010.3
20180225205015 58 0 0.0 0.0 0.00 0.00 0.00 70 1010.3
20180225204115 58 154 0.0 1.0 0.00 0.00 0.00 69 1010.2
20180225203215 58 154 0.0 1.0 0.00 0.00 0.00 69 1010.2
20180225202315 59 154 1.0 2.0 0.00 0.00 0.00 68 1010.2
20180225201415 59 156 2.0 5.0 0.00 0.00 0.00 68 1010.3
20180225200515 59 166 1.0 5.0 0.00 0.00 0.00 68 1010.2
20180225195615 59 172 2.0 5.0 0.00 0.00 0.00 67 1010.3
20180225194715 59 169 2.0 4.0 0.00 0.00 0.00 67 1010.3
20180225193815 60 169 2.0 4.0 0.00 0.00 0.00 67 1010.3
20180225192915 60 175 1.0 6.0 0.00 0.00 0.00 66 1010.3
20180225192015 60 196 1.0 5.0 0.00 0.00 0.00 65 1010.3
20180225191115 60 209 2.0 3.0 0.00 0.00 0.00 63 1010.3
20180225190215 60 208 2.0 5.0 0.00 0.00 0.00 62 1010.3
20180225185315 61 210 1.0 4.0 0.00 0.00 0.00 60 1010.3
20180225184415 61 201 1.0 4.0 0.00 0.00 0.00 59 1010.3
20180225183515 61 202 3.0 7.0 0.00 0.00 0.00 59 1010.3
20180225182615 61 197 3.0 5.0 0.00 0.00 0.00 58 1010.3
20180225181715 61 203 3.0 6.0 0.00 0.00 0.00 58 1010.1
20180225180815 62 200 3.0 7.0 0.00 0.00 0.00 57 1010.2
20180225175915 62 193 3.0 8.0 0.00 0.00 0.00 57 1010.1
20180225175015 63 195 3.0 6.0 0.00 0.00 0.00 55 1010.1
20180225174115 63 206 3.0 6.0 0.00 0.00 0.00 54 1009.9
20180225173215 64 200 2.0 6.0 0.00 0.00 0.00 54 1010.0
20180225172315 64 188 2.0 8.0 0.00 0.00 0.00 53 1009.9
20180225171415 64 189 3.0 6.0 0.00 0.00 0.00 53 1009.8
20180225170515 64 167 4.0 8.0 0.00 0.00 0.00 53 1009.8
20180225165615 64 192 5.0 8.0 0.00 0.00 0.00 53 1009.8
20180225164715 64 179 5.0 12.0 0.00 0.00 0.00 53 1009.8
20180225163815 64 173 3.0 10.0 0.00 0.00 0.00 53 1009.8
20180225162915 64 183 4.0 9.0 0.00 0.00 0.00 53 1009.7
20180225162015 64 178 3.0 7.0 0.00 0.00 0.00 53 1009.7
20180225161115 65 226 4.0 8.0 0.00 0.00 0.00 52 1009.8
20180225160215 64 195 4.0 11.0 0.00 0.00 0.00 53 1009.8
20180225155315 64 171 3.0 10.0 0.00 0.00 0.00 53 1009.8
20180225154415 64 173 2.0 7.0 0.00 0.00 0.00 52 1009.8
20180225153515 64 200 3.0 7.0 0.00 0.00 0.00 52 1009.8
20180225152615 64 178 3.0 6.0 0.00 0.00 0.00 52 1009.9
20180225151715 64 162 2.0 9.0 0.00 0.00 0.00 52 1009.9
20180225150815 64 223 3.0 7.0 0.00 0.00 0.00 51 1009.9
20180225145915 63 152 4.0 10.0 0.00 0.00 0.00 54 1010.0
20180225145015 63 139 4.0 10.0 0.00 0.00 0.00 54 1010.0
20180225144115 64 163 3.0 9.0 0.00 0.00 0.00 53 1009.9
20180225143215 63 183 2.0 6.0 0.00 0.00 0.00 55 1010.0
20180225142315 62 140 3.0 6.0 0.00 0.00 0.00 56 1010.0
20180225141415 62 173 3.0 8.0 0.00 0.00 0.00 57 1010.1
20180225140515 62 140 2.0 6.0 0.00 0.00 0.00 56 1010.1
20180225135615 62 125 1.0 7.0 0.00 0.00 0.00 58 1010.2
20180225134715 62 142 1.0 4.0 0.00 0.00 0.00 60 1010.3
20180225133815 61 187 2.0 5.0 0.00 0.00 0.00 60 1010.4
20180225132915 61 161 3.0 8.0 0.00 0.00 0.00 62 1010.4
20180225132015 61 130 2.0 8.0 0.00 0.00 0.00 61 1010.5
20180225131115 60 131 2.0 6.0 0.00 0.00 0.00 64 1010.6
20180225130215 60 128 1.0 4.0 0.00 0.00 0.00 63 1010.7
20180225125315 61 66 2.0 4.0 0.00 0.00 0.00 63 1010.9
20180225124415 60 104 3.0 8.0 0.00 0.00 0.00 65 1011.0
20180225123515 61 94 2.0 8.0 0.00 0.00 0.00 64 1011.1
20180225122615 60 55 3.0 6.0 0.00 0.00 0.00 66 1011.3
20180225121715 59 91 3.0 9.0 0.00 0.00 0.00 67 1011.4
20180225120815 60 182 2.0 5.0 0.00 0.00 0.00 67 1011.5
20180225115915 59 146 2.0 6.0 0.00 0.00 0.00 67 1011.6
20180225115015 59 121 1.0 5.0 0.00 0.00 0.00 68 1011.7
20180225114115 59 108 1.0 3.0 0.00 0.00 0.00 69 1011.8
20180225113215 58 169 2.0 4.0 0.00 0.00 0.00 70 1011.8
20180225112315 58 151 1.0 4.0 0.00 0.00 0.00 71 1011.8
20180225111415 57 42 1.0 2.0 0.00 0.00 0.00 72 1011.8
20180225110515 56 349 2.0 5.0 0.00 0.00 0.00 73 1011.8
20180225105615 56 329 2.0 5.0 0.00 0.00 0.00 74 1011.9
20180225104715 56 345 2.0 4.0 0.00 0.00 0.00 74 1011.9
20180225103815 56 25 2.0 4.0 0.00 0.00 0.00 74 1011.8
20180225102915 55 26 2.0 4.0 0.00 0.00 0.00 74 1011.8
20180225102015 55 40 3.0 5.0 0.00 0.00 0.00 74 1011.7
20180225101115 55 59 1.0 7.0 0.00 0.00 0.00 74 1011.7
20180225100215 55 70 1.0 2.0 0.00 0.00 0.00 75 1011.7
20180225095315 54 67 1.0 4.0 0.00 0.00 0.00 76 1011.5
20180225094415 54 67 2.0 4.0 0.00 0.00 0.00 76 1011.4
20180225093515 54 63 3.0 5.0 0.00 0.00 0.00 76 1011.5
20180225092615 54 65 2.0 5.0 0.00 0.00 0.00 76 1011.4
20180225091715 53 75 2.0 4.0 0.00 0.00 0.00 76 1011.4
20180225090815 53 79 2.0 4.0 0.00 0.00 0.00 76 1011.3
20180225085915 53 66 2.0 4.0 0.00 0.00 0.00 77 1011.4
20180225085015 53 27 2.0 4.0 0.00 0.00 0.00 77 1011.3
20180225084115 53 20 1.0 3.0 0.00 0.00 0.00 77 1011.3
20180225083215 53 20 2.0 4.0 0.00 0.00 0.00 77 1011.2
20180225082315 52 22 3.0 4.0 0.00 0.00 0.00 77 1011.1
20180225081415 52 43 2.0 4.0 0.00 0.00 0.00 77 1011.0
20180225080515 52 52 2.0 4.0 0.00 0.00 0.00 78 1010.9
20180225075615 52 39 1.0 3.0 0.00 0.00 0.00 78 1010.8
20180225074715 52 38 1.0 4.0 0.00 0.00 0.00 78 1010.7
20180225073815 52 38 1.0 3.0 0.00 0.00 0.00 77 1010.5
20180225072915 52 38 2.0 3.0 0.00 0.00 0.00 77 1010.5
20180225072015 52 38 2.0 3.0 0.00 0.00 0.00 78 1010.3
20180225071115 52 38 2.0 3.0 0.00 0.00 0.00 77 1010.2
20180225070215 52 38 1.0 3.0 0.00 0.00 0.00 78 1010.0
20180225065315 52 38 1.0 2.0 0.00 0.00 0.00 77 1009.8
20180225064415 52 38 2.0 3.0 0.00 0.00 0.00 77 1009.8
20180225063515 53 62 2.0 3.0 0.00 0.00 0.00 76 1009.8
20180225062615 53 67 1.0 3.0 0.00 0.00 0.00 76 1009.7
20180225061715 53 67 1.0 2.0 0.00 0.00 0.00 76 1009.8
20180225060815 53 67 1.0 2.0 0.00 0.00 0.00 76 1009.8
20180225055915 53 67 1.0 3.0 0.00 0.00 0.00 76 1009.6
20180225055015 53 67 2.0 3.0 0.00 0.00 0.00 76 1009.6
20180225054115 53 67 1.0 3.0 0.00 0.00 0.00 76 1009.6
20180225053215 53 67 1.0 3.0 0.00 0.00 0.00 76 1009.5
20180225052315 53 67 1.0 3.0 0.00 0.00 0.00 76 1009.5
20180225051415 53 67 0.0 2.0 0.00 0.00 0.00 76 1009.4
20180225050515 53 67 1.0 2.0 0.00 0.00 0.00 76 1009.4
20180225045615 53 67 2.0 3.0 0.00 0.00 0.00 76 1009.4
20180225044715 53 67 2.0 4.0 0.00 0.00 0.00 76 1009.4
20180225043815 53 67 2.0 4.0 0.00 0.00 0.00 76 1009.4
20180225042915 54 68 2.0 4.0 0.00 0.00 0.00 75 1009.3
20180225042015 54 40 2.0 4.0 0.00 0.00 0.00 75 1009.2
20180225041115 54 36 2.0 4.0 0.00 0.00 0.00 75 1009.1
20180225040215 54 36 1.0 3.0 0.00 0.00 0.00 75 1009.1
20180225035315 54 36 0.0 2.0 0.00 0.00 0.00 75 1009.1
20180225034415 54 36 0.0 1.0 0.00 0.00 0.00 75 1009.1
20180225033515 54 0 0.0 0.0 0.00 0.00 0.00 75 1009.1
20180225032615 54 0 0.0 0.0 0.00 0.00 0.00 76 1009.1
20180225031715 54 36 1.0 1.0 0.00 0.00 0.00 75 1009.2